Time,TemperatureF,DewpointF,PressureIn,WindDirection,WindDirectionDegrees,WindSpeedMPH,WindSpeedGustMPH,Humidity,HourlyPrecipIn,Conditions,Clouds,dailyrainin,SoftwareType,DateUTC
2013-04-13 00:00:00,63.1,50.7,29.71,WSW,254,0.0,0.0,64,0.00,,,0.39,LWC V2.00 B2112,2013-04-13 04:00:00,
2013-04-13 00:01:00,62.9,50.5,29.71,WSW,254,0.0,0.0,64,0.00,,,0.39,LWC V2.00 B2112,2013-04-13 04:01:00,
2013-04-13 00:06:00,62.7,50.3,29.71,WSW,254,0.0,0.0,64,0.00,,,0.39,LWC V2.00 B2112,2013-04-13 04:06:00,
2013-04-13 00:11:00,62.6,49.4,29.72,WSW,254,0.0,0.0,62,0.00,,,0.39,LWC V2.00 B2112,2013-04-13 04:11:00,
2013-04-13 00:16:00,62.4,48.3,29.72,WSW,254,0.0,0.0,60,0.00,,,0.39,LWC V2.00 B2112,2013-04-13 04:16:00,
2013-04-13 00:21:00,62.3,49.1,29.72,WSW,254,0.0,0.0,62,0.00,,,0.39,LWC V2.00 B2112,2013-04-13 04:21:00,
2013-04-13 00:26:00,62.1,48.5,29.72,WSW,254,0.0,0.0,61,0.00,,,0.39,LWC V2.00 B2112,2013-04-13 04:26:00,
2013-04-13 00:31:00,62.0,48.0,29.72,WSW,254,0.0,0.0,60,0.00,,,0.39,LWC V2.00 B2112,2013-04-13 04:31:00,
2013-04-13 00:36:00,61.8,48.6,29.72,WSW,254,0.0,0.0,62,0.00,,,0.39,LWC V2.00 B2112,2013-04-13 04:36:00,
2013-04-13 00:41:00,61.6,47.6,29.73,WSW,254,0.0,0.0,60,0.00,,,0.39,LWC V2.00 B2112,2013-04-13 04:41:00,
2013-04-13 00:46:00,61.3,47.3,29.73,WSW,254,0.0,0.0,60,0.00,,,0.39,LWC V2.00 B2112,2013-04-13 04:46:00,
2013-04-13 00:51:00,61.2,47.2,29.73,WSW,254,0.0,0.0,60,0.00,,,0.39,LWC V2.00 B2112,2013-04-13 04:51:00,
2013-04-13 00:56:00,61.0,47.5,29.74,WSW,254,0.0,0.0,61,0.00,,,0.39,LWC V2.00 B2112,2013-04-13 04:56:00,
2013-04-13 01:01:00,60.9,47.8,29.74,WSW,254,0.0,0.0,62,0.00,,,0.39,LWC V2.00 B2112,2013-04-13 05:01:00,
2013-04-13 01:06:00,60.7,48.4,29.74,WSW,254,0.0,0.0,64,0.00,,,0.39,LWC V2.00 B2112,2013-04-13 05:06:00,
2013-04-13 01:11:00,60.4,48.2,29.75,WSW,254,0.0,0.0,64,0.00,,,0.39,LWC V2.00 B2112,2013-04-13 05:11:00,
2013-04-13 01:16:00,60.2,48.0,29.75,WSW,254,0.0,0.0,64,0.00,,,0.39,LWC V2.00 B2112,2013-04-13 05:16:00,
2013-04-13 01:21:00,59.9,47.7,29.75,WSW,254,0.0,0.0,64,0.00,,,0.39,LWC V2.00 B2112,2013-04-13 05:21:00,
2013-04-13 01:26:00,59.6,46.6,29.76,WSW,254,0.0,0.0,62,0.00,,,0.39,LWC V2.00 B2112,2013-04-13 05:26:00,
2013-04-13 01:31:00,59.3,47.1,29.76,WSW,254,0.0,0.0,64,0.00,,,0.39,LWC V2.00 B2112,2013-04-13 05:31:00,
2013-04-13 01:36:00,59.2,47.8,29.76,WSW,254,0.0,0.0,66,0.00,,,0.39,LWC V2.00 B2112,2013-04-13 05:36:00,
2013-04-13 01:41:00,59.0,48.5,29.76,WSW,254,0.0,0.0,68,0.00,,,0.39,LWC V2.00 B2112,2013-04-13 05:41:00,
2013-04-13 01:46:00,58.7,48.2,29.76,WSW,254,0.0,0.0,68,0.00,,,0.39,LWC V2.00 B2112,2013-04-13 05:46:00,
2013-04-13 01:51:00,58.6,48.5,29.76,WSW,254,0.0,0.0,69,0.00,,,0.39,LWC V2.00 B2112,2013-04-13 05:51:00,
2013-04-13 01:56:00,58.3,48.2,29.76,WSW,254,0.0,0.0,69,0.00,,,0.39,LWC V2.00 B2112,2013-04-13 05:56:00,
2013-04-13 02:01:00,58.1,48.0,29.76,WSW,254,0.0,0.0,69,0.00,,,0.39,LWC V2.00 B2112,2013-04-13 06:01:00,
2013-04-13 02:06:00,57.8,48.1,29.76,WSW,254,0.0,0.0,70,0.00,,,0.39,LWC V2.00 B2112,2013-04-13 06:06:00,
2013-04-13 02:11:00,57.6,48.6,29.76,WSW,254,0.0,0.0,72,0.00,,,0.39,LWC V2.00 B2112,2013-04-13 06:11:00,
2013-04-13 02:16:00,57.3,47.6,29.76,WSW,254,0.0,0.0,70,0.00,,,0.39,LWC V2.00 B2112,2013-04-13 06:16:00,
2013-04-13 02:21:00,57.2,47.1,29.76,WSW,254,0.0,0.0,69,0.00,,,0.39,LWC V2.00 B2112,2013-04-13 06:21:00,
2013-04-13 02:26:00,57.0,46.9,29.77,WSW,254,0.0,0.0,69,0.00,,,0.39,LWC V2.00 B2112,2013-04-13 06:26:00,
2013-04-13 02:31:00,56.9,47.6,29.77,WSW,254,0.0,0.0,71,0.00,,,0.39,LWC V2.00 B2112,2013-04-13 06:31:00,
2013-04-13 02:36:00,56.7,46.6,29.77,WSW,254,0.0,0.0,69,0.00,,,0.39,LWC V2.00 B2112,2013-04-13 06:36:00,
2013-04-13 02:41:00,56.6,46.2,29.77,WSW,254,0.0,0.0,68,0.00,,,0.39,LWC V2.00 B2112,2013-04-13 06:41:00,
2013-04-13 02:46:00,56.5,46.8,29.77,WSW,254,0.0,0.0,70,0.00,,,0.39,LWC V2.00 B2112,2013-04-13 06:46:00,
2013-04-13 02:51:00,56.5,46.5,29.77,WSW,254,0.0,0.0,69,0.00,,,0.39,LWC V2.00 B2112,2013-04-13 06:51:00,
2013-04-13 02:56:00,56.3,46.3,29.78,WSW,254,0.0,0.0,69,0.00,,,0.39,LWC V2.00 B2112,2013-04-13 06:56:00,
2013-04-13 03:01:00,56.3,46.3,29.78,WSW,254,0.0,0.0,69,0.00,,,0.39,LWC V2.00 B2112,2013-04-13 07:01:00,
2013-04-13 03:06:00,56.2,46.2,29.78,WSW,254,0.0,0.0,69,0.00,,,0.39,LWC V2.00 B2112,2013-04-13 07:06:00,
2013-04-13 03:11:00,56.2,46.5,29.78,WSW,254,0.0,0.0,70,0.00,,,0.39,LWC V2.00 B2112,2013-04-13 07:11:00,
2013-04-13 03:16:00,56.0,46.7,29.78,WSW,254,0.0,0.0,71,0.00,,,0.39,LWC V2.00 B2112,2013-04-13 07:16:00,
2013-04-13 03:22:00,56.0,46.0,29.78,WSW,254,0.0,0.0,69,0.00,,,0.39,LWC V2.00 B2112,2013-04-13 07:22:00,
2013-04-13 03:27:00,55.9,45.5,29.79,WSW,254,0.0,0.0,68,0.00,,,0.39,LWC V2.00 B2112,2013-04-13 07:27:00,
2013-04-13 03:32:00,55.9,45.9,29.79,WSW,254,0.0,0.0,69,0.00,,,0.39,LWC V2.00 B2112,2013-04-13 07:32:00,
2013-04-13 03:37:00,55.9,45.1,29.79,WSW,248,0.0,1.0,67,0.00,,,0.39,LWC V2.00 B2112,2013-04-13 07:37:00,
2013-04-13 03:42:00,55.9,45.9,29.79,WSW,248,0.0,0.0,69,0.00,,,0.39,LWC V2.00 B2112,2013-04-13 07:42:00,
2013-04-13 03:47:00,55.7,44.5,29.79,WSW,248,0.0,0.0,66,0.00,,,0.39,LWC V2.00 B2112,2013-04-13 07:47:00,
2013-04-13 03:52:00,55.7,44.1,29.79,WSW,248,0.0,0.0,65,0.00,,,0.39,LWC V2.00 B2112,2013-04-13 07:52:00,
2013-04-13 03:57:00,55.9,44.3,29.79,WSW,248,0.0,0.0,65,0.00,,,0.39,LWC V2.00 B2112,2013-04-13 07:57:00,
2013-04-13 04:02:00,56.0,43.6,29.79,WSW,248,0.0,0.0,63,0.00,,,0.39,LWC V2.00 B2112,2013-04-13 08:02:00,
2013-04-13 04:07:00,56.2,44.6,29.79,WSW,248,0.0,0.0,65,0.00,,,0.39,LWC V2.00 B2112,2013-04-13 08:07:00,
2013-04-13 04:12:00,56.2,43.4,29.80,WSW,248,0.0,0.0,62,0.00,,,0.39,LWC V2.00 B2112,2013-04-13 08:12:00,
2013-04-13 04:17:00,56.3,42.2,29.80,WSW,248,0.0,0.0,59,0.00,,,0.39,LWC V2.00 B2112,2013-04-13 08:17:00,
2013-04-13 04:22:00,56.3,43.0,29.80,WSW,248,0.0,0.0,61,0.00,,,0.39,LWC V2.00 B2112,2013-04-13 08:22:00,
2013-04-13 04:27:00,56.3,43.0,29.81,WSW,248,0.0,0.0,61,0.00,,,0.39,LWC V2.00 B2112,2013-04-13 08:27:00,
2013-04-13 04:32:00,56.2,44.2,29.81,WSW,248,0.0,1.0,64,0.00,,,0.39,LWC V2.00 B2112,2013-04-13 08:32:00,
2013-04-13 04:37:00,55.9,43.5,29.81,WSW,248,0.0,0.0,63,0.00,,,0.39,LWC V2.00 B2112,2013-04-13 08:37:00,
2013-04-13 04:42:00,55.7,42.5,29.82,SE,125,0.0,1.0,61,0.00,,,0.39,LWC V2.00 B2112,2013-04-13 08:42:00,
2013-04-13 04:47:00,55.7,41.6,29.82,ESE,119,0.0,1.0,59,0.00,,,0.39,LWC V2.00 B2112,2013-04-13 08:47:00,
2013-04-13 04:52:00,55.7,41.6,29.82,ESE,119,0.0,0.0,59,0.00,,,0.39,LWC V2.00 B2112,2013-04-13 08:52:00,
2013-04-13 04:57:00,55.7,42.5,29.82,ESE,119,0.0,0.0,61,0.00,,,0.39,LWC V2.00 B2112,2013-04-13 08:57:00,
2013-04-13 05:02:00,55.6,41.1,29.82,ESE,119,0.0,0.0,58,0.00,,,0.39,LWC V2.00 B2112,2013-04-13 09:02:00,
2013-04-13 05:07:00,55.6,41.1,29.82,ESE,119,0.0,0.0,58,0.00,,,0.39,LWC V2.00 B2112,2013-04-13 09:07:00,
2013-04-13 05:12:00,55.4,42.2,29.83,ESE,119,0.0,0.0,61,0.00,,,0.39,LWC V2.00 B2112,2013-04-13 09:12:00,
2013-04-13 05:17:00,55.4,40.0,29.83,East,96,0.0,0.0,56,0.00,,,0.39,LWC V2.00 B2112,2013-04-13 09:17:00,
2013-04-13 05:22:00,55.3,40.3,29.83,East,95,0.0,1.0,57,0.00,,,0.39,LWC V2.00 B2112,2013-04-13 09:22:00,
2013-04-13 05:27:00,55.3,40.3,29.83,East,80,0.0,0.0,57,0.00,,,0.39,LWC V2.00 B2112,2013-04-13 09:27:00,
2013-04-13 05:32:00,55.1,40.1,29.83,East,80,0.0,1.0,57,0.00,,,0.39,LWC V2.00 B2112,2013-04-13 09:32:00,
2013-04-13 05:37:00,55.1,40.6,29.83,East,80,0.0,0.0,58,0.00,,,0.39,LWC V2.00 B2112,2013-04-13 09:37:00,
2013-04-13 05:42:00,55.0,41.8,29.83,East,80,0.0,0.0,61,0.00,,,0.39,LWC V2.00 B2112,2013-04-13 09:42:00,
2013-04-13 05:47:00,54.7,39.3,29.83,NE,48,0.0,0.0,56,0.00,,,0.39,LWC V2.00 B2112,2013-04-13 09:47:00,
2013-04-13 05:52:00,54.5,40.9,29.83,NE,48,0.0,0.0,60,0.00,,,0.39,LWC V2.00 B2112,2013-04-13 09:52:00,
2013-04-13 05:57:00,54.4,40.4,29.84,NE,48,0.0,0.0,59,0.00,,,0.39,LWC V2.00 B2112,2013-04-13 09:57:00,
2013-04-13 06:02:00,54.1,40.5,29.84,NE,48,0.0,0.0,60,0.00,,,0.39,LWC V2.00 B2112,2013-04-13 10:02:00,
2013-04-13 06:07:00,53.9,39.5,29.84,NE,48,0.0,0.0,58,0.00,,,0.39,LWC V2.00 B2112,2013-04-13 10:07:00,
2013-04-13 06:12:00,53.9,39.0,29.85,NE,48,0.0,0.0,57,0.00,,,0.39,LWC V2.00 B2112,2013-04-13 10:12:00,
2013-04-13 06:17:00,53.8,39.4,29.85,NE,49,0.0,1.0,58,0.00,,,0.39,LWC V2.00 B2112,2013-04-13 10:17:00,
2013-04-13 06:22:00,53.8,39.8,29.85,NE,49,0.0,0.0,59,0.00,,,0.39,LWC V2.00 B2112,2013-04-13 10:22:00,
2013-04-13 06:27:00,53.6,40.1,29.85,NE,49,0.0,0.0,60,0.00,,,0.39,LWC V2.00 B2112,2013-04-13 10:27:00,
2013-04-13 06:32:00,53.5,39.5,29.85,NE,49,0.0,0.0,59,0.00,,,0.39,LWC V2.00 B2112,2013-04-13 10:32:00,
2013-04-13 06:37:00,53.2,39.2,29.85,NE,49,0.0,0.0,59,0.00,,,0.39,LWC V2.00 B2112,2013-04-13 10:37:00,
2013-04-13 06:42:00,53.1,39.6,29.86,NE,49,0.0,0.0,60,0.00,,,0.39,LWC V2.00 B2112,2013-04-13 10:42:00,
2013-04-13 06:47:00,52.8,40.1,29.86,NNE,22,0.0,0.0,62,0.00,,,0.39,LWC V2.00 B2112,2013-04-13 10:47:00,
2013-04-13 06:52:00,52.6,40.8,29.86,NNE,21,0.0,0.0,64,0.00,,,0.39,LWC V2.00 B2112,2013-04-13 10:52:00,
2013-04-13 06:57:00,52.3,41.7,29.86,NNE,21,0.0,0.0,67,0.00,,,0.39,LWC V2.00 B2112,2013-04-13 10:57:00,
2013-04-13 07:02:00,52.2,41.6,29.86,NNE,21,0.0,0.0,67,0.00,,,0.39,LWC V2.00 B2112,2013-04-13 11:02:00,
2013-04-13 07:07:00,52.0,40.6,29.86,NNE,21,0.0,0.0,65,0.00,,,0.39,LWC V2.00 B2112,2013-04-13 11:07:00,
2013-04-13 07:12:00,52.0,41.0,29.88,NNE,21,0.0,0.0,66,0.00,,,0.39,LWC V2.00 B2112,2013-04-13 11:12:00,
2013-04-13 07:17:00,52.0,41.0,29.88,NNE,21,0.0,0.0,66,0.00,,,0.39,LWC V2.00 B2112,2013-04-13 11:17:00,
2013-04-13 07:22:00,51.9,40.5,29.88,NNE,21,0.0,0.0,65,0.00,,,0.39,LWC V2.00 B2112,2013-04-13 11:22:00,
2013-04-13 07:27:00,52.0,41.8,29.88,NNE,21,0.0,0.0,68,0.00,,,0.39,LWC V2.00 B2112,2013-04-13 11:27:00,
2013-04-13 07:32:00,52.0,42.1,29.88,NNE,21,0.0,0.0,69,0.00,,,0.39,LWC V2.00 B2112,2013-04-13 11:32:00,
2013-04-13 07:37:00,51.9,41.7,29.88,NNE,21,0.0,0.0,68,0.00,,,0.39,LWC V2.00 B2112,2013-04-13 11:37:00,
2013-04-13 07:42:00,52.0,41.0,29.89,NNE,22,0.0,0.0,66,0.00,,,0.39,LWC V2.00 B2112,2013-04-13 11:42:00,
2013-04-13 07:47:00,52.0,41.8,29.89,NNE,22,0.0,0.0,68,0.00,,,0.39,LWC V2.00 B2112,2013-04-13 11:47:00,
2013-04-13 07:52:00,52.2,42.3,29.89,NNE,21,0.0,0.0,69,0.00,,,0.39,LWC V2.00 B2112,2013-04-13 11:52:00,
2013-04-13 07:57:00,52.3,43.2,29.90,NNE,21,0.0,0.0,71,0.00,,,0.39,LWC V2.00 B2112,2013-04-13 11:57:00,
2013-04-13 08:02:00,52.5,43.7,29.90,NNE,21,0.0,1.0,72,0.00,,,0.39,LWC V2.00 B2112,2013-04-13 12:02:00,
2013-04-13 08:07:00,52.9,43.8,29.90,NNE,21,0.0,0.0,71,0.00,,,0.39,LWC V2.00 B2112,2013-04-13 12:07:00,
2013-04-13 08:12:00,53.3,43.8,29.90,NNE,22,0.0,0.0,70,0.00,,,0.39,LWC V2.00 B2112,2013-04-13 12:12:00,
2013-04-13 08:17:00,53.8,42.7,29.90,NNE,21,0.0,0.0,66,0.00,,,0.39,LWC V2.00 B2112,2013-04-13 12:17:00,
2013-04-13 08:22:00,54.4,42.1,29.90,NNE,21,0.0,0.0,63,0.00,,,0.39,LWC V2.00 B2112,2013-04-13 12:22:00,
2013-04-13 08:27:00,55.1,42.7,29.91,NNE,21,0.0,0.0,63,0.00,,,0.00,LWC V2.00 B2112,2013-04-13 12:27:00,
2013-04-13 08:32:00,56.0,41.4,29.91,NNE,22,0.0,0.0,58,0.00,,,0.00,LWC V2.00 B2112,2013-04-13 12:32:00,
2013-04-13 08:37:00,56.6,40.1,29.91,NNE,22,0.0,0.0,54,0.00,,,0.00,LWC V2.00 B2112,2013-04-13 12:37:00,
2013-04-13 08:42:00,57.5,40.0,29.91,North,0,0.0,0.0,52,0.00,,,0.00,LWC V2.00 B2112,2013-04-13 12:42:00,
2013-04-13 08:47:00,58.1,39.6,29.91,North,0,0.0,0.0,50,0.00,,,0.00,LWC V2.00 B2112,2013-04-13 12:47:00,
2013-04-13 08:52:00,58.7,43.0,29.91,North,350,1.0,1.0,56,0.00,,,0.00,LWC V2.00 B2112,2013-04-13 12:52:00,
2013-04-13 08:57:00,59.3,40.1,29.91,North,350,0.0,0.0,49,0.00,,,0.00,LWC V2.00 B2112,2013-04-13 12:57:00,
2013-04-13 09:02:00,59.9,38.5,29.91,WSW,254,0.0,1.0,45,0.00,,,0.00,LWC V2.00 B2112,2013-04-13 13:02:00,
2013-04-13 09:07:00,60.5,40.2,29.91,West,267,2.0,3.0,47,0.00,,,0.00,LWC V2.00 B2112,2013-04-13 13:07:00,
2013-04-13 09:12:00,61.2,40.3,29.91,SE,144,0.0,0.0,46,0.00,,,0.00,LWC V2.00 B2112,2013-04-13 13:12:00,
2013-04-13 09:17:00,61.6,37.0,29.91,ESE,106,0.0,2.0,40,0.00,,,0.00,LWC V2.00 B2112,2013-04-13 13:17:00,
2013-04-13 09:22:00,62.3,36.4,29.91,WSW,248,0.0,1.0,38,0.00,,,0.00,LWC V2.00 B2112,2013-04-13 13:22:00,
2013-04-13 09:27:00,62.4,37.8,29.92,WSW,248,0.0,0.0,40,0.00,,,0.00,LWC V2.00 B2112,2013-04-13 13:27:00,
2013-04-13 09:32:00,62.6,39.2,29.92,NE,51,0.0,3.0,42,0.00,,,0.00,LWC V2.00 B2112,2013-04-13 13:32:00,
2013-04-13 09:37:00,62.6,37.3,29.92,WSW,252,0.0,0.0,39,0.00,,,0.00,LWC V2.00 B2112,2013-04-13 13:37:00,
2013-04-13 09:42:00,62.7,38.0,29.92,WSW,250,0.0,2.0,40,0.00,,,0.00,LWC V2.00 B2112,2013-04-13 13:42:00,
2013-04-13 09:47:00,62.9,37.6,29.92,East,96,0.0,2.0,39,0.00,,,0.00,LWC V2.00 B2112,2013-04-13 13:47:00,
2013-04-13 09:52:00,63.2,38.5,29.92,ESE,117,0.0,0.0,40,0.00,,,0.00,LWC V2.00 B2112,2013-04-13 13:52:00,
2013-04-13 09:57:00,63.4,35.3,29.92,West,267,0.0,2.0,35,0.00,,,0.00,LWC V2.00 B2112,2013-04-13 13:57:00,
2013-04-13 10:02:00,63.5,37.4,29.92,East,85,2.0,2.0,38,0.00,,,0.00,LWC V2.00 B2112,2013-04-13 14:02:00,
2013-04-13 10:07:00,63.9,35.7,29.92,WNW,300,0.0,1.0,35,0.00,,,0.00,LWC V2.00 B2112,2013-04-13 14:07:00,
2013-04-13 10:12:00,63.9,38.5,29.92,West,281,0.0,2.0,39,0.00,,,0.00,LWC V2.00 B2112,2013-04-13 14:12:00,
2013-04-13 10:17:00,64.2,38.1,29.92,NNE,32,0.0,1.0,38,0.00,,,0.00,LWC V2.00 B2112,2013-04-13 14:17:00,
2013-04-13 10:22:00,64.5,37.0,29.92,North,0,0.0,1.0,36,0.00,,,0.00,LWC V2.00 B2112,2013-04-13 14:22:00,
2013-04-13 10:27:00,64.3,36.1,29.92,North,0,0.0,1.0,35,0.00,,,0.00,LWC V2.00 B2112,2013-04-13 14:27:00,
2013-04-13 10:32:00,64.7,37.1,29.92,NNW,335,0.0,1.0,36,0.00,,,0.00,LWC V2.00 B2112,2013-04-13 14:32:00,
2013-04-13 10:37:00,65.5,37.1,29.92,East,88,0.0,3.0,35,0.00,,,0.00,LWC V2.00 B2112,2013-04-13 14:37:00,
2013-04-13 10:42:00,66.1,37.6,29.92,East,88,0.0,1.0,35,0.00,,,0.00,LWC V2.00 B2112,2013-04-13 14:42:00,
2013-04-13 10:47:00,66.3,37.1,29.92,North,9,0.0,2.0,34,0.00,,,0.00,LWC V2.00 B2112,2013-04-13 14:47:00,
2013-04-13 10:52:00,66.1,39.1,29.92,North,5,0.0,0.0,37,0.00,,,0.00,LWC V2.00 B2112,2013-04-13 14:52:00,
2013-04-13 10:57:00,65.8,35.1,29.92,NNW,331,0.0,0.0,32,0.00,,,0.00,LWC V2.00 B2112,2013-04-13 14:57:00,
2013-04-13 11:02:00,65.8,37.4,29.92,NNW,331,0.0,1.0,35,0.00,,,0.00,LWC V2.00 B2112,2013-04-13 15:02:00,
2013-04-13 11:07:00,66.0,37.6,29.92,NNW,331,0.0,1.0,35,0.00,,,0.00,LWC V2.00 B2112,2013-04-13 15:07:00,
2013-04-13 11:12:00,66.1,36.9,29.92,NNW,331,0.0,0.0,34,0.00,,,0.00,LWC V2.00 B2112,2013-04-13 15:12:00,
2013-04-13 11:17:00,66.1,37.6,29.92,North,0,0.0,0.0,35,0.00,,,0.00,LWC V2.00 B2112,2013-04-13 15:17:00,
2013-04-13 11:22:00,66.4,37.2,29.92,North,0,0.0,0.0,34,0.00,,,0.00,LWC V2.00 B2112,2013-04-13 15:22:00,
2013-04-13 11:27:00,66.6,37.3,29.92,North,0,1.0,1.0,34,0.00,,,0.00,LWC V2.00 B2112,2013-04-13 15:27:00,
2013-04-13 11:32:00,66.9,38.4,29.92,ENE,74,3.0,3.0,35,0.00,,,0.00,LWC V2.00 B2112,2013-04-13 15:32:00,
2013-04-13 11:37:00,67.4,38.8,29.92,WNW,302,0.0,1.0,35,0.00,,,0.00,LWC V2.00 B2112,2013-04-13 15:37:00,
2013-04-13 11:42:00,67.6,37.5,29.92,NE,55,1.0,2.0,33,0.00,,,0.00,LWC V2.00 B2112,2013-04-13 15:42:00,
2013-04-13 11:47:00,67.8,37.6,29.92,South,187,1.0,1.0,33,0.00,,,0.00,LWC V2.00 B2112,2013-04-13 15:47:00,
2013-04-13 11:52:00,67.9,39.2,29.92,SW,232,0.0,0.0,35,0.00,,,0.00,LWC V2.00 B2112,2013-04-13 15:52:00,
2013-04-13 11:57:00,68.4,40.4,29.92,SW,232,0.0,0.0,36,0.00,,,0.00,LWC V2.00 B2112,2013-04-13 15:57:00,
2013-04-13 12:02:00,68.4,38.2,29.92,WSW,251,0.0,1.0,33,0.00,,,0.00,LWC V2.00 B2112,2013-04-13 16:02:00,
2013-04-13 12:07:00,68.6,37.6,29.92,WSW,254,0.0,2.0,32,0.00,,,0.00,LWC V2.00 B2112,2013-04-13 16:07:00,
2013-04-13 12:12:00,68.8,36.9,29.92,West,261,2.0,4.0,31,0.00,,,0.00,LWC V2.00 B2112,2013-04-13 16:12:00,
2013-04-13 12:17:00,68.4,37.4,29.92,SW,226,0.0,1.0,32,0.00,,,0.00,LWC V2.00 B2112,2013-04-13 16:17:00,
2013-04-13 12:22:00,68.9,35.3,29.92,NE,47,0.0,2.0,29,0.00,,,0.00,LWC V2.00 B2112,2013-04-13 16:22:00,
2013-04-13 12:27:00,69.1,37.2,29.91,NNE,16,0.0,0.0,31,0.00,,,0.00,LWC V2.00 B2112,2013-04-13 16:27:00,
2013-04-13 12:32:00,69.8,38.6,29.91,WSW,253,3.0,3.0,32,0.00,,,0.00,LWC V2.00 B2112,2013-04-13 16:32:00,
2013-04-13 12:37:00,70.1,34.6,29.91,East,88,0.0,1.0,27,0.00,,,0.00,LWC V2.00 B2112,2013-04-13 16:37:00,
2013-04-13 12:42:00,70.3,39.8,29.91,East,82,0.0,0.0,33,0.00,,,0.00,LWC V2.00 B2112,2013-04-13 16:42:00,
2013-04-13 12:47:00,70.4,37.5,29.91,West,263,0.0,1.0,30,0.00,,,0.00,LWC V2.00 B2112,2013-04-13 16:47:00,
2013-04-13 12:52:00,70.3,38.2,29.91,East,82,1.0,2.0,31,0.00,,,0.00,LWC V2.00 B2112,2013-04-13 16:52:00,
2013-04-13 12:57:00,71.1,39.7,29.90,NW,311,0.0,1.0,32,0.00,,,0.00,LWC V2.00 B2112,2013-04-13 16:57:00,
2013-04-13 13:02:00,71.3,39.1,29.90,NW,311,0.0,0.0,31,0.00,,,0.00,LWC V2.00 B2112,2013-04-13 17:02:00,
2013-04-13 13:07:00,70.9,37.0,29.90,NE,53,0.0,1.0,29,0.00,,,0.00,LWC V2.00 B2112,2013-04-13 17:07:00,
2013-04-13 13:12:00,70.8,36.1,29.90,NW,326,0.0,2.0,28,0.00,,,0.00,LWC V2.00 B2112,2013-04-13 17:12:00,
2013-04-13 13:17:00,70.8,39.5,29.90,NW,326,0.0,1.0,32,0.00,,,0.00,LWC V2.00 B2112,2013-04-13 17:17:00,
2013-04-13 13:22:00,70.8,38.7,29.90,WNW,296,0.0,1.0,31,0.00,,,0.00,LWC V2.00 B2112,2013-04-13 17:22:00,
2013-04-13 13:27:00,71.6,39.4,29.90,East,92,0.0,2.0,31,0.00,,,0.00,LWC V2.00 B2112,2013-04-13 17:27:00,
2013-04-13 13:32:00,71.6,40.2,29.90,West,259,0.0,1.0,32,0.00,,,0.00,LWC V2.00 B2112,2013-04-13 17:32:00,
2013-04-13 13:37:00,71.6,41.0,29.90,SW,232,0.0,2.0,33,0.00,,,0.00,LWC V2.00 B2112,2013-04-13 17:37:00,
2013-04-13 13:42:00,71.6,39.4,29.90,WSW,250,2.0,3.0,31,0.00,,,0.00,LWC V2.00 B2112,2013-04-13 17:42:00,
2013-04-13 13:47:00,71.5,37.6,29.90,WSW,250,0.0,1.0,29,0.00,,,0.00,LWC V2.00 B2112,2013-04-13 17:47:00,
2013-04-13 13:52:00,71.8,39.5,29.90,ENE,78,0.0,3.0,31,0.00,,,0.00,LWC V2.00 B2112,2013-04-13 17:52:00,
2013-04-13 13:57:00,72.1,39.8,29.90,WNW,286,1.0,1.0,31,0.00,,,0.00,LWC V2.00 B2112,2013-04-13 17:57:00,
2013-04-13 14:02:00,72.3,40.0,29.90,WSW,241,0.0,1.0,31,0.00,,,0.00,LWC V2.00 B2112,2013-04-13 18:02:00,
2013-04-13 14:07:00,72.5,39.3,29.90,WSW,250,2.0,3.0,30,0.00,,,0.00,LWC V2.00 B2112,2013-04-13 18:07:00,
2013-04-13 14:12:00,72.3,40.0,29.90,WSW,254,1.0,1.0,31,0.00,,,0.00,LWC V2.00 B2112,2013-04-13 18:12:00,
2013-04-13 14:17:00,72.1,37.2,29.90,SW,236,0.0,3.0,28,0.00,,,0.00,LWC V2.00 B2112,2013-04-13 18:17:00,
2013-04-13 14:22:00,72.3,37.4,29.90,WSW,252,0.0,1.0,28,0.00,,,0.00,LWC V2.00 B2112,2013-04-13 18:22:00,
2013-04-13 14:27:00,72.5,37.5,29.90,SE,124,0.0,2.0,28,0.00,,,0.00,LWC V2.00 B2112,2013-04-13 18:27:00,
2013-04-13 14:31:00,72.8,36.9,29.90,West,275,0.0,3.0,27,0.00,,,0.00,LWC V2.00 B2112,2013-04-13 18:31:00,
2013-04-13 14:36:00,72.5,37.5,29.90,West,271,0.0,2.0,28,0.00,,,0.00,LWC V2.00 B2112,2013-04-13 18:36:00,
2013-04-13 14:41:00,72.3,38.3,29.89,East,92,3.0,4.0,29,0.00,,,0.00,LWC V2.00 B2112,2013-04-13 18:41:00,
2013-04-13 14:46:00,73.2,38.1,29.89,SW,219,0.0,1.0,28,0.00,,,0.00,LWC V2.00 B2112,2013-04-13 18:46:00,
2013-04-13 14:51:00,73.5,41.0,29.89,SW,219,1.0,1.0,31,0.00,,,0.00,LWC V2.00 B2112,2013-04-13 18:51:00,
2013-04-13 14:56:00,73.7,38.6,29.88,ESE,114,1.0,1.0,28,0.00,,,0.00,LWC V2.00 B2112,2013-04-13 18:56:00,
2013-04-13 15:01:00,73.9,39.6,29.88,WNW,294,2.0,2.0,29,0.00,,,0.00,LWC V2.00 B2112,2013-04-13 19:01:00,
2013-04-13 15:06:00,74.0,38.8,29.88,NW,317,0.0,2.0,28,0.00,,,0.00,LWC V2.00 B2112,2013-04-13 19:06:00,
2013-04-13 15:11:00,74.0,38.8,29.88,North,0,0.0,3.0,28,0.00,,,0.00,LWC V2.00 B2112,2013-04-13 19:11:00,
2013-04-13 15:16:00,74.2,38.1,29.88,North,350,0.0,2.0,27,0.00,,,0.00,LWC V2.00 B2112,2013-04-13 19:16:00,
2013-04-13 15:21:00,74.4,37.3,29.88,North,350,0.0,1.0,26,0.00,,,0.00,LWC V2.00 B2112,2013-04-13 19:21:00,
2013-04-13 15:26:00,74.6,38.4,29.88,East,100,0.0,2.0,27,0.00,,,0.00,LWC V2.00 B2112,2013-04-13 19:26:00,
2013-04-13 15:31:00,74.9,39.6,29.88,West,268,0.0,1.0,28,0.00,,,0.00,LWC V2.00 B2112,2013-04-13 19:31:00,
2013-04-13 15:36:00,74.9,38.7,29.88,West,268,0.0,1.0,27,0.00,,,0.00,LWC V2.00 B2112,2013-04-13 19:36:00,
2013-04-13 15:41:00,74.9,39.6,29.87,West,268,1.0,1.0,28,0.00,,,0.00,LWC V2.00 B2112,2013-04-13 19:41:00,
2013-04-13 15:46:00,74.2,39.0,29.87,SSW,204,0.0,1.0,28,0.00,,,0.00,LWC V2.00 B2112,2013-04-13 19:46:00,
2013-04-13 15:51:00,74.0,37.9,29.87,SW,232,0.0,1.0,27,0.00,,,0.00,LWC V2.00 B2112,2013-04-13 19:51:00,
2013-04-13 15:56:00,74.6,38.4,29.86,SW,232,0.0,0.0,27,0.00,,,0.00,LWC V2.00 B2112,2013-04-13 19:56:00,
2013-04-13 16:01:00,74.7,39.4,29.86,West,265,0.0,2.0,28,0.00,,,0.00,LWC V2.00 B2112,2013-04-13 20:01:00,
2013-04-13 16:06:00,74.4,39.2,29.86,SSE,165,1.0,1.0,28,0.00,,,0.00,LWC V2.00 B2112,2013-04-13 20:06:00,
2013-04-13 16:11:00,74.2,38.1,29.86,SW,222,1.0,1.0,27,0.00,,,0.00,LWC V2.00 B2112,2013-04-13 20:11:00,
2013-04-13 16:16:00,74.0,37.9,29.86,NW,319,0.0,0.0,27,0.00,,,0.00,LWC V2.00 B2112,2013-04-13 20:16:00,
2013-04-13 16:21:00,74.0,36.9,29.86,NW,319,0.0,1.0,26,0.00,,,0.00,LWC V2.00 B2112,2013-04-13 20:21:00,
2013-04-13 16:26:00,74.4,39.2,29.85,WSW,240,0.0,2.0,28,0.00,,,0.00,LWC V2.00 B2112,2013-04-13 20:26:00,
2013-04-13 16:31:00,74.6,39.3,29.85,NNW,348,0.0,2.0,28,0.00,,,0.00,LWC V2.00 B2112,2013-04-13 20:31:00,
2013-04-13 16:36:00,74.6,37.4,29.85,NW,325,0.0,0.0,26,0.00,,,0.00,LWC V2.00 B2112,2013-04-13 20:36:00,
2013-04-13 16:41:00,74.7,38.5,29.85,ENE,71,0.0,0.0,27,0.00,,,0.00,LWC V2.00 B2112,2013-04-13 20:41:00,
2013-04-13 16:46:00,74.7,37.5,29.85,WNW,285,0.0,0.0,26,0.00,,,0.00,LWC V2.00 B2112,2013-04-13 20:46:00,
2013-04-13 16:51:00,75.1,36.9,29.85,NNW,339,0.0,2.0,25,0.00,,,0.00,LWC V2.00 B2112,2013-04-13 20:51:00,
2013-04-13 16:56:00,74.9,36.7,29.85,SSE,167,0.0,0.0,25,0.00,,,0.00,LWC V2.00 B2112,2013-04-13 20:56:00,
2013-04-13 17:01:00,75.1,36.9,29.85,WSW,240,0.0,0.0,25,0.00,,,0.00,LWC V2.00 B2112,2013-04-13 21:01:00,
2013-04-13 17:06:00,75.1,35.8,29.85,WSW,240,0.0,0.0,24,0.00,,,0.00,LWC V2.00 B2112,2013-04-13 21:06:00,
2013-04-13 17:11:00,75.3,37.0,29.85,WSW,239,0.0,1.0,25,0.00,,,0.00,LWC V2.00 B2112,2013-04-13 21:11:00,
2013-04-13 17:16:00,75.1,37.9,29.85,WSW,239,0.0,0.0,26,0.00,,,0.00,LWC V2.00 B2112,2013-04-13 21:16:00,
2013-04-13 17:21:00,75.1,36.9,29.85,WSW,240,0.0,1.0,25,0.00,,,0.00,LWC V2.00 B2112,2013-04-13 21:21:00,
2013-04-13 17:26:00,75.3,37.0,29.85,WSW,242,0.0,1.0,25,0.00,,,0.00,LWC V2.00 B2112,2013-04-13 21:26:00,
2013-04-13 17:31:00,74.6,37.4,29.85,WSW,242,0.0,1.0,26,0.00,,,0.00,LWC V2.00 B2112,2013-04-13 21:31:00,
2013-04-13 17:36:00,74.0,36.9,29.85,WSW,242,0.0,1.0,26,0.00,,,0.00,LWC V2.00 B2112,2013-04-13 21:36:00,
2013-04-13 17:41:00,73.9,37.8,29.85,WSW,242,0.0,0.0,27,0.00,,,0.00,LWC V2.00 B2112,2013-04-13 21:41:00,
2013-04-13 17:46:00,74.0,37.9,29.85,WSW,242,0.0,0.0,27,0.00,,,0.00,LWC V2.00 B2112,2013-04-13 21:46:00,
2013-04-13 17:51:00,74.0,37.9,29.85,WSW,242,0.0,0.0,27,0.00,,,0.00,LWC V2.00 B2112,2013-04-13 21:51:00,
2013-04-13 17:56:00,74.0,38.8,29.85,WSW,242,0.0,1.0,28,0.00,,,0.00,LWC V2.00 B2112,2013-04-13 21:56:00,
2013-04-13 18:01:00,74.2,39.0,29.85,WSW,242,0.0,1.0,28,0.00,,,0.00,LWC V2.00 B2112,2013-04-13 22:01:00,
2013-04-13 18:06:00,74.4,38.2,29.85,West,273,0.0,1.0,27,0.00,,,0.00,LWC V2.00 B2112,2013-04-13 22:06:00,
2013-04-13 18:11:00,74.4,39.2,29.85,West,268,0.0,1.0,28,0.00,,,0.00,LWC V2.00 B2112,2013-04-13 22:11:00,
2013-04-13 18:16:00,74.4,39.2,29.85,West,268,0.0,0.0,28,0.00,,,0.00,LWC V2.00 B2112,2013-04-13 22:16:00,
2013-04-13 18:21:00,74.2,39.0,29.85,West,268,0.0,0.0,28,0.00,,,0.00,LWC V2.00 B2112,2013-04-13 22:21:00,
2013-04-13 18:26:00,73.9,37.8,29.85,West,268,0.0,0.0,27,0.00,,,0.00,LWC V2.00 B2112,2013-04-13 22:26:00,
2013-04-13 18:31:00,73.7,37.6,29.85,West,268,0.0,0.0,27,0.00,,,0.00,LWC V2.00 B2112,2013-04-13 22:31:00,
2013-04-13 18:36:00,73.3,37.3,29.85,West,268,0.0,0.0,27,0.00,,,0.00,LWC V2.00 B2112,2013-04-13 22:36:00,
2013-04-13 18:41:00,73.2,40.7,29.85,West,268,0.0,0.0,31,0.00,,,0.00,LWC V2.00 B2112,2013-04-13 22:41:00,
2013-04-13 18:46:00,73.0,40.6,29.85,West,268,0.0,0.0,31,0.00,,,0.00,LWC V2.00 B2112,2013-04-13 22:46:00,
2013-04-13 18:51:00,72.8,39.5,29.85,West,268,0.0,0.0,30,0.00,,,0.00,LWC V2.00 B2112,2013-04-13 22:51:00,
2013-04-13 18:56:00,72.5,39.3,29.86,West,268,0.0,0.0,30,0.00,,,0.00,LWC V2.00 B2112,2013-04-13 22:56:00,
2013-04-13 19:01:00,72.1,38.9,29.86,West,268,0.0,0.0,30,0.00,,,0.00,LWC V2.00 B2112,2013-04-13 23:01:00,
2013-04-13 19:06:00,71.8,44.1,29.86,West,268,0.0,0.0,37,0.00,,,0.00,LWC V2.00 B2112,2013-04-13 23:06:00,
2013-04-13 19:11:00,71.5,40.1,29.86,West,268,0.0,0.0,32,0.00,,,0.00,LWC V2.00 B2112,2013-04-13 23:11:00,
2013-04-13 19:16:00,71.1,44.2,29.86,West,268,0.0,0.0,38,0.00,,,0.00,LWC V2.00 B2112,2013-04-13 23:16:00,
2013-04-13 19:21:00,70.6,43.0,29.86,West,268,0.0,0.0,37,0.00,,,0.00,LWC V2.00 B2112,2013-04-13 23:21:00,
2013-04-13 19:26:00,70.3,42.1,29.87,West,268,0.0,0.0,36,0.00,,,0.00,LWC V2.00 B2112,2013-04-13 23:26:00,
2013-04-13 19:31:00,69.8,44.4,29.87,West,268,0.0,0.0,40,0.00,,,0.00,LWC V2.00 B2112,2013-04-13 23:31:00,
2013-04-13 19:36:00,69.4,44.0,29.87,West,268,0.0,0.0,40,0.00,,,0.00,LWC V2.00 B2112,2013-04-13 23:36:00,
2013-04-13 19:41:00,69.1,43.1,29.87,West,268,0.0,0.0,39,0.00,,,0.00,LWC V2.00 B2112,2013-04-13 23:41:00,
2013-04-13 19:46:00,68.6,43.3,29.87,West,268,0.0,0.0,40,0.00,,,0.00,LWC V2.00 B2112,2013-04-13 23:46:00,
2013-04-13 19:51:00,68.3,43.0,29.87,West,268,0.0,0.0,40,0.00,,,0.00,LWC V2.00 B2112,2013-04-13 23:51:00,
2013-04-13 19:56:00,67.8,42.6,29.88,West,268,0.0,0.0,40,0.00,,,0.00,LWC V2.00 B2112,2013-04-13 23:56:00,
2013-04-13 20:01:00,67.3,43.4,29.88,West,268,0.0,0.0,42,0.00,,,0.00,LWC V2.00 B2112,2013-04-14 00:01:00,
2013-04-13 20:06:00,66.8,43.6,29.88,West,268,0.0,0.0,43,0.00,,,0.00,LWC V2.00 B2112,2013-04-14 00:06:00,
2013-04-13 20:11:00,66.3,43.7,29.88,West,268,0.0,0.0,44,0.00,,,0.00,LWC V2.00 B2112,2013-04-14 00:11:00,
2013-04-13 20:16:00,65.8,43.9,29.88,West,268,0.0,0.0,45,0.00,,,0.00,LWC V2.00 B2112,2013-04-14 00:16:00,
2013-04-13 20:21:00,65.5,44.2,29.88,West,268,0.0,0.0,46,0.00,,,0.00,LWC V2.00 B2112,2013-04-14 00:21:00,
2013-04-13 20:26:00,65.0,43.7,29.88,West,268,0.0,0.0,46,0.00,,,0.00,LWC V2.00 B2112,2013-04-14 00:26:00,
2013-04-13 20:31:00,64.3,43.6,29.88,West,268,0.0,0.0,47,0.00,,,0.00,LWC V2.00 B2112,2013-04-14 00:31:00,
2013-04-13 20:36:00,63.9,43.8,29.88,West,268,0.0,0.0,48,0.00,,,0.00,LWC V2.00 B2112,2013-04-14 00:36:00,
2013-04-13 20:41:00,63.2,44.8,29.89,West,268,0.0,0.0,51,0.00,,,0.00,LWC V2.00 B2112,2013-04-14 00:41:00,
2013-04-13 20:46:00,62.7,44.8,29.89,West,268,0.0,0.0,52,0.00,,,0.00,LWC V2.00 B2112,2013-04-14 00:46:00,
2013-04-13 20:51:00,62.3,45.4,29.89,West,268,0.0,0.0,54,0.00,,,0.00,LWC V2.00 B2112,2013-04-14 00:51:00,
2013-04-13 20:56:00,61.8,45.0,29.90,West,268,0.0,0.0,54,0.00,,,0.00,LWC V2.00 B2112,2013-04-14 00:56:00,
2013-04-13 21:01:00,61.3,45.0,29.90,West,268,0.0,0.0,55,0.00,,,0.00,LWC V2.00 B2112,2013-04-14 01:01:00,
2013-04-13 21:06:00,60.9,45.1,29.90,West,268,0.0,0.0,56,0.00,,,0.00,LWC V2.00 B2112,2013-04-14 01:06:00,
2013-04-13 21:11:00,60.4,45.1,29.90,West,268,0.0,0.0,57,0.00,,,0.00,LWC V2.00 B2112,2013-04-14 01:11:00,
2013-04-13 21:16:00,59.9,45.5,29.90,West,268,0.0,0.0,59,0.00,,,0.00,LWC V2.00 B2112,2013-04-14 01:16:00,
2013-04-13 21:21:00,59.6,45.3,29.90,West,268,0.0,0.0,59,0.00,,,0.00,LWC V2.00 B2112,2013-04-14 01:21:00,
2013-04-13 21:26:00,59.3,45.4,29.91,West,268,0.0,0.0,60,0.00,,,0.00,LWC V2.00 B2112,2013-04-14 01:26:00,
2013-04-13 21:31:00,59.0,45.6,29.91,West,268,0.0,0.0,61,0.00,,,0.00,LWC V2.00 B2112,2013-04-14 01:31:00,
2013-04-13 21:36:00,58.7,45.3,29.91,West,268,0.0,0.0,61,0.00,,,0.00,LWC V2.00 B2112,2013-04-14 01:36:00,
2013-04-13 21:41:00,58.4,45.0,29.92,West,268,0.0,0.0,61,0.00,,,0.00,LWC V2.00 B2112,2013-04-14 01:41:00,
2013-04-13 21:46:00,58.0,45.1,29.92,West,268,0.0,0.0,62,0.00,,,0.00,LWC V2.00 B2112,2013-04-14 01:46:00,
2013-04-13 21:51:00,57.6,45.1,29.92,West,268,0.0,0.0,63,0.00,,,0.00,LWC V2.00 B2112,2013-04-14 01:51:00,
2013-04-13 21:56:00,57.5,45.0,29.93,West,268,0.0,0.0,63,0.00,,,0.00,LWC V2.00 B2112,2013-04-14 01:56:00,
2013-04-13 22:01:00,57.2,44.7,29.93,West,268,0.0,0.0,63,0.00,,,0.00,LWC V2.00 B2112,2013-04-14 02:01:00,
2013-04-13 22:06:00,56.9,44.8,29.93,West,268,0.0,0.0,64,0.00,,,0.00,LWC V2.00 B2112,2013-04-14 02:06:00,
2013-04-13 22:11:00,56.6,44.6,29.93,West,268,0.0,0.0,64,0.00,,,0.00,LWC V2.00 B2112,2013-04-14 02:11:00,
2013-04-13 22:17:00,56.3,44.7,29.93,West,268,0.0,0.0,65,0.00,,,0.00,LWC V2.00 B2112,2013-04-14 02:17:00,
2013-04-13 22:22:00,56.2,45.0,29.93,West,268,0.0,0.0,66,0.00,,,0.00,LWC V2.00 B2112,2013-04-14 02:22:00,
2013-04-13 22:27:00,55.9,45.1,29.93,West,268,0.0,0.0,67,0.00,,,0.00,LWC V2.00 B2112,2013-04-14 02:27:00,
2013-04-13 22:32:00,55.6,45.2,29.93,West,268,0.0,0.0,68,0.00,,,0.00,LWC V2.00 B2112,2013-04-14 02:32:00,
2013-04-13 22:37:00,55.3,45.3,29.93,West,268,0.0,0.0,69,0.00,,,0.00,LWC V2.00 B2112,2013-04-14 02:37:00,
2013-04-13 22:42:00,55.0,45.4,29.93,West,268,0.0,0.0,70,0.00,,,0.00,LWC V2.00 B2112,2013-04-14 02:42:00,
2013-04-13 22:47:00,54.8,45.2,29.93,West,268,0.0,0.0,70,0.00,,,0.00,LWC V2.00 B2112,2013-04-14 02:47:00,
2013-04-13 22:52:00,54.7,45.5,29.93,West,268,0.0,0.0,71,0.00,,,0.00,LWC V2.00 B2112,2013-04-14 02:52:00,
2013-04-13 22:57:00,54.4,45.2,29.94,West,268,0.0,0.0,71,0.00,,,0.00,LWC V2.00 B2112,2013-04-14 02:57:00,
2013-04-13 23:02:00,54.2,45.4,29.94,West,268,0.0,0.0,72,0.00,,,0.00,LWC V2.00 B2112,2013-04-14 03:02:00,
2013-04-13 23:07:00,54.1,45.6,29.94,West,268,0.0,0.0,73,0.00,,,0.00,LWC V2.00 B2112,2013-04-14 03:07:00,
2013-04-13 23:12:00,53.9,45.8,29.95,West,268,0.0,0.0,74,0.00,,,0.00,LWC V2.00 B2112,2013-04-14 03:12:00,
2013-04-13 23:17:00,53.6,45.5,29.95,West,268,0.0,0.0,74,0.00,,,0.00,LWC V2.00 B2112,2013-04-14 03:17:00,
2013-04-13 23:22:00,53.5,45.8,29.95,West,268,0.0,0.0,75,0.00,,,0.00,LWC V2.00 B2112,2013-04-14 03:22:00,
2013-04-13 23:27:00,53.3,45.6,29.95,West,268,0.0,0.0,75,0.00,,,0.00,LWC V2.00 B2112,2013-04-14 03:27:00,
2013-04-13 23:32:00,53.1,45.7,29.95,West,268,0.0,0.0,76,0.00,,,0.00,LWC V2.00 B2112,2013-04-14 03:32:00,
2013-04-13 23:37:00,52.9,45.5,29.95,West,268,0.0,0.0,76,0.00,,,0.00,LWC V2.00 B2112,2013-04-14 03:37:00,
2013-04-13 23:42:00,52.8,45.8,29.96,West,268,0.0,0.0,77,0.00,,,0.00,LWC V2.00 B2112,2013-04-14 03:42:00,
2013-04-13 23:47:00,52.6,45.6,29.96,West,268,0.0,0.0,77,0.00,,,0.00,LWC V2.00 B2112,2013-04-14 03:47:00,
2013-04-13 23:52:00,52.5,45.5,29.96,West,268,0.0,0.0,77,0.00,,,0.00,LWC V2.00 B2112,2013-04-14 03:52:00,
2013-04-13 23:57:00,52.3,45.6,29.96,West,268,0.0,0.0,78,0.00,,,0.00,LWC V2.00 B2112,2013-04-14 03:57:00,